MSR663 HECA-OEJN

Flight info

Callsign MSR663
Flight time 1h 40m
Altitude 39000
Route CVO A727 NABED T55 DEDLU M999 MUVOL
Aircraft B77W/H-SDE1E2E3FGHIJ2J3J4J5M1RWXY/LB1D1

Departure

Time 2026-05-07 11:43
Airport Cairo International Airport (HECA)

Arrival

Time 2026-05-07 13:23
Airport King Abdulaziz International Airport (OEJN)
Time Latitude Longitude Altitude Speed Heading
2026-05-07 11:11 30.10809 31.39694 393 ft 0 kts 255°
2026-05-07 11:34 30.10813 31.39707 393 ft 2 kts 252°
2026-05-07 11:34 30.10816 31.39720 393 ft 2 kts 252°
2026-05-07 11:34 30.10825 31.39739 393 ft 2 kts 227°
2026-05-07 11:34 30.10838 31.39751 393 ft 2 kts 206°
2026-05-07 11:35 30.10855 31.39757 393 ft 2 kts 185°
2026-05-07 11:35 30.10871 31.39757 393 ft 0 kts 166°
2026-05-07 11:35 30.10874 31.39755 393 ft 0 kts 164°
2026-05-07 11:35 30.10874 31.39756 393 ft 0 kts 164°
2026-05-07 11:38 30.10866 31.39758 393 ft 1 kts 164°
2026-05-07 11:38 30.10851 31.39763 393 ft 2 kts 164°
2026-05-07 11:38 30.10826 31.39771 393 ft 4 kts 164°
2026-05-07 11:39 30.10793 31.39781 393 ft 5 kts 166°
2026-05-07 11:39 30.10745 31.39795 393 ft 8 kts 165°
2026-05-07 11:39 30.10682 31.39813 393 ft 10 kts 166°
2026-05-07 11:39 30.10608 31.39835 393 ft 11 kts 164°
2026-05-07 11:40 30.10525 31.39861 393 ft 12 kts 165°
2026-05-07 11:40 30.10443 31.39875 393 ft 11 kts 191°
2026-05-07 11:40 30.10379 31.39816 393 ft 11 kts 227°
2026-05-07 11:40 30.10316 31.39734 393 ft 16 kts 229°
2026-05-07 11:41 30.10243 31.39633 393 ft 16 kts 230°
2026-05-07 11:41 30.10153 31.39570 393 ft 15 kts 174°
2026-05-07 11:41 30.10069 31.39647 393 ft 14 kts 134°
2026-05-07 11:41 30.10010 31.39752 393 ft 15 kts 102°
2026-05-07 11:42 30.10030 31.39885 393 ft 17 kts 62°
2026-05-07 11:42 30.10117 31.40015 393 ft 26 kts 49°
2026-05-07 11:42 30.10423 31.40421 394 ft 110 kts 49°
2026-05-07 11:42 30.11152 31.41370 662 ft 174 kts 45°
2026-05-07 11:43 30.11954 31.42469 1727 ft 187 kts 52°
2026-05-07 11:43 30.12494 31.43713 2839 ft 178 kts 72°
2026-05-07 11:43 30.12479 31.45254 3429 ft 204 kts 102°
2026-05-07 11:43 30.11581 31.46725 3995 ft 234 kts 142°
2026-05-07 11:44 30.09876 31.47370 4638 ft 258 kts 170°
2026-05-07 11:44 30.08015 31.47604 5365 ft 273 kts 172°
2026-05-07 11:44 30.06071 31.47823 6131 ft 287 kts 173°
2026-05-07 11:44 30.04077 31.48045 7092 ft 291 kts 173°
2026-05-07 11:45 30.02060 31.48269 8066 ft 295 kts 173°
2026-05-07 11:45 30.00024 31.48496 8987 ft 300 kts 174°
2026-05-07 11:45 29.97925 31.48729 9902 ft 304 kts 174°
2026-05-07 11:45 29.95665 31.48980 10710 ft 316 kts 175°
2026-05-07 11:46 29.93314 31.49241 11360 ft 334 kts 175°
2026-05-07 11:46 29.90780 31.49521 12065 ft 351 kts 175°
2026-05-07 11:46 29.88108 31.49817 12814 ft 368 kts 175°
2026-05-07 11:46 29.85269 31.50132 13567 ft 385 kts 175°
2026-05-07 11:47 29.82261 31.50466 14387 ft 401 kts 175°
2026-05-07 11:47 29.79124 31.50815 15262 ft 417 kts 175°
2026-05-07 11:47 29.75931 31.51171 16435 ft 423 kts 175°
2026-05-07 11:47 29.72704 31.51531 17597 ft 428 kts 175°
2026-05-07 11:48 29.69490 31.52050 18682 ft 435 kts 168°
2026-05-07 11:48 29.66371 31.53007 19741 ft 442 kts 164°
2026-05-07 11:48 29.63233 31.54038 20779 ft 448 kts 164°
2026-05-07 11:48 29.59985 31.55106 21826 ft 454 kts 164°
2026-05-07 11:49 29.56811 31.56148 22773 ft 460 kts 164°
2026-05-07 11:49 29.53606 31.57199 23730 ft 465 kts 164°
2026-05-07 11:49 29.50386 31.58253 24601 ft 472 kts 164°
2026-05-07 11:49 29.47042 31.59346 25443 ft 478 kts 165°
2026-05-07 11:50 29.43713 31.60433 26303 ft 483 kts 165°
2026-05-07 11:50 29.40329 31.61537 27121 ft 489 kts 165°
2026-05-07 11:50 29.36767 31.62698 27926 ft 495 kts 165°
2026-05-07 11:50 29.33049 31.63908 28714 ft 502 kts 165°
2026-05-07 11:51 29.29405 31.65094 29496 ft 508 kts 166°
2026-05-07 11:51 29.25616 31.66326 30495 ft 508 kts 166°
2026-05-07 11:51 29.23221 31.67105 31155 ft 507 kts 166°
2026-05-07 11:51 29.18310 31.68700 32392 ft 505 kts 166°
2026-05-07 11:52 29.14591 31.69907 33204 ft 505 kts 166°
2026-05-07 11:52 29.10847 31.71121 33931 ft 506 kts 166°
2026-05-07 11:52 29.07079 31.72342 34641 ft 505 kts 166°
2026-05-07 11:52 29.03363 31.73545 35403 ft 500 kts 166°
2026-05-07 11:53 28.99564 31.74774 36100 ft 498 kts 166°
2026-05-07 11:53 28.95725 31.76009 36753 ft 499 kts 166°
2026-05-07 11:53 28.91853 31.77241 37410 ft 498 kts 166°
2026-05-07 11:53 28.88163 31.78413 37926 ft 498 kts 166°
2026-05-07 11:54 28.84360 31.79621 38387 ft 497 kts 167°
2026-05-07 11:54 28.80545 31.80832 38811 ft 497 kts 167°
2026-05-07 11:54 28.77039 31.81945 39006 ft 500 kts 167°
2026-05-07 11:55 28.69422 31.84360 39025 ft 496 kts 167°
2026-05-07 11:55 28.61875 31.86749 39027 ft 498 kts 167°
2026-05-07 11:56 28.54440 31.89099 39036 ft 498 kts 167°
2026-05-07 11:56 28.46807 31.91510 39039 ft 497 kts 167°
2026-05-07 11:57 28.39287 31.93881 39036 ft 498 kts 167°
2026-05-07 11:57 28.31783 31.96243 39037 ft 498 kts 167°
2026-05-07 11:58 28.24215 31.98622 39031 ft 495 kts 167°
2026-05-07 11:58 28.16693 32.00983 39035 ft 496 kts 167°
2026-05-07 11:59 28.09135 32.03351 39033 ft 494 kts 167°
2026-05-07 11:59 28.01751 32.05665 39033 ft 495 kts 167°
2026-05-07 12:00 27.94134 32.08107 39037 ft 495 kts 167°
2026-05-07 12:00 27.86842 32.10441 39033 ft 495 kts 167°
2026-05-07 12:01 27.79810 32.12688 39041 ft 497 kts 167°
2026-05-07 12:01 27.72297 32.15085 39025 ft 495 kts 167°
2026-05-07 12:02 27.65131 32.17367 39025 ft 494 kts 167°
2026-05-07 12:02 27.57826 32.19690 39028 ft 492 kts 167°
2026-05-07 12:03 27.50457 32.22030 39038 ft 493 kts 167°
2026-05-07 12:03 27.43201 32.24331 39032 ft 492 kts 168°
2026-05-07 12:04 27.35709 32.26734 39017 ft 493 kts 164°
2026-05-07 12:04 27.28614 32.31097 39026 ft 502 kts 143°
2026-05-07 12:05 27.23140 32.37700 39029 ft 506 kts 131°
2026-05-07 12:05 27.17996 32.44781 39032 ft 505 kts 131°
2026-05-07 12:06 27.13072 32.51510 39025 ft 506 kts 131°
2026-05-07 12:06 27.08035 32.58361 39010 ft 505 kts 131°
2026-05-07 12:07 27.02809 32.65445 38982 ft 504 kts 132°
2026-05-07 12:07 26.97701 32.72352 38943 ft 503 kts 132°
2026-05-07 12:08 26.92795 32.78972 38937 ft 504 kts 132°
2026-05-07 12:08 26.87687 32.85853 38952 ft 504 kts 133°
2026-05-07 12:09 26.82855 32.92353 38949 ft 502 kts 133°
2026-05-07 12:09 26.77888 32.99023 38952 ft 503 kts 133°
2026-05-07 12:10 26.72793 33.05855 38957 ft 502 kts 133°
2026-05-07 12:10 26.67742 33.12616 38961 ft 502 kts 133°
2026-05-07 12:11 26.62636 33.19442 38967 ft 502 kts 133°
2026-05-07 12:11 26.57480 33.26324 38961 ft 503 kts 133°
2026-05-07 12:12 26.52306 33.33218 38964 ft 503 kts 134°
2026-05-07 12:12 26.47121 33.40117 38968 ft 503 kts 134°
2026-05-07 12:13 26.42060 33.46841 38984 ft 503 kts 134°
2026-05-07 12:13 26.36892 33.53698 38992 ft 503 kts 134°
2026-05-07 12:14 26.31719 33.60551 38988 ft 503 kts 134°
2026-05-07 12:14 26.26572 33.67359 38972 ft 502 kts 135°
2026-05-07 12:15 26.21397 33.74195 38972 ft 501 kts 135°
2026-05-07 12:15 26.16200 33.81048 38974 ft 502 kts 135°
2026-05-07 12:16 26.11006 33.87887 38957 ft 501 kts 135°
2026-05-07 12:16 26.05838 33.94682 38950 ft 501 kts 135°
2026-05-07 12:17 26.00647 34.01497 38935 ft 498 kts 135°
2026-05-07 12:17 25.95506 34.08237 38944 ft 499 kts 135°
2026-05-07 12:18 25.90369 34.14960 38934 ft 501 kts 135°
2026-05-07 12:18 25.85288 34.21605 38952 ft 498 kts 135°
2026-05-07 12:19 25.80197 34.28252 38943 ft 496 kts 136°
2026-05-07 12:19 25.75094 34.34903 38937 ft 499 kts 136°
2026-05-07 12:20 25.70062 34.41453 38937 ft 499 kts 136°
2026-05-07 12:20 25.65231 34.47734 38933 ft 497 kts 136°
2026-05-07 12:21 25.60604 34.53742 38936 ft 498 kts 136°
2026-05-07 12:21 25.55370 34.60173 38945 ft 494 kts 141°
2026-05-07 12:22 25.49818 34.66153 38925 ft 491 kts 142°
2026-05-07 12:22 25.44394 34.72027 38909 ft 491 kts 142°
2026-05-07 12:23 25.39070 34.77815 38897 ft 492 kts 142°
2026-05-07 12:23 25.33801 34.83552 38886 ft 490 kts 142°
2026-05-07 12:24 25.28555 34.89263 38890 ft 490 kts 142°
2026-05-07 12:24 25.23317 34.94961 38890 ft 493 kts 142°
2026-05-07 12:25 25.18027 35.00713 38887 ft 490 kts 142°
2026-05-07 12:25 25.12901 35.06279 38884 ft 490 kts 143°
2026-05-07 12:26 25.07715 35.11903 38885 ft 491 kts 142°
2026-05-07 12:26 25.02436 35.17601 38883 ft 491 kts 143°
2026-05-07 12:27 24.97201 35.23222 38885 ft 490 kts 143°
2026-05-07 12:27 24.91953 35.28852 38886 ft 489 kts 143°
2026-05-07 12:28 24.86746 35.34432 38893 ft 489 kts 143°
2026-05-07 12:28 24.81681 35.39854 38892 ft 488 kts 143°
2026-05-07 12:29 24.76533 35.45357 38892 ft 489 kts 143°
2026-05-07 12:29 24.71406 35.50833 38888 ft 484 kts 143°
2026-05-07 12:30 24.66302 35.56274 38890 ft 487 kts 143°
2026-05-07 12:30 24.61363 35.61536 38886 ft 485 kts 143°
2026-05-07 12:31 24.56373 35.66843 38870 ft 487 kts 144°
2026-05-07 12:31 24.51437 35.72093 38878 ft 483 kts 144°
2026-05-07 12:32 24.46458 35.77378 38883 ft 483 kts 144°
2026-05-07 12:32 24.41534 35.82599 38882 ft 483 kts 144°
2026-05-07 12:33 24.34123 35.90447 38882 ft 482 kts 144°
2026-05-07 12:33 24.29125 35.95729 38870 ft 483 kts 145°
2026-05-07 12:34 24.24092 36.01045 38863 ft 482 kts 145°
2026-05-07 12:34 24.19003 36.06414 38863 ft 480 kts 145°
2026-05-07 12:35 24.13975 36.11709 38858 ft 483 kts 145°
2026-05-07 12:35 24.08963 36.16985 38864 ft 480 kts 145°
2026-05-07 12:36 24.03933 36.22273 38861 ft 480 kts 145°
2026-05-07 12:36 23.98851 36.27606 38860 ft 484 kts 145°
2026-05-07 12:37 23.93723 36.32987 38855 ft 482 kts 145°
2026-05-07 12:37 23.88726 36.38223 38873 ft 481 kts 145°
2026-05-07 12:38 23.83837 36.43338 38869 ft 481 kts 146°
2026-05-07 12:38 23.78894 36.48507 38865 ft 478 kts 146°
2026-05-07 12:39 23.74048 36.53566 38869 ft 480 kts 146°
2026-05-07 12:39 23.69104 36.58721 38871 ft 478 kts 146°
2026-05-07 12:40 23.64199 36.63831 38872 ft 479 kts 146°
2026-05-07 12:40 23.59216 36.69018 38856 ft 476 kts 146°
2026-05-07 12:41 23.54328 36.74098 38855 ft 478 kts 147°
2026-05-07 12:41 23.49431 36.79185 38855 ft 477 kts 147°
2026-05-07 12:42 23.44525 36.84273 38847 ft 477 kts 147°
2026-05-07 12:42 23.39634 36.89342 38837 ft 475 kts 147°
2026-05-07 12:43 23.34761 36.94383 38841 ft 480 kts 147°
2026-05-07 12:43 23.29857 36.99458 38845 ft 474 kts 147°
2026-05-07 12:44 23.24974 37.04498 38845 ft 477 kts 147°
2026-05-07 12:44 23.20109 37.09520 38837 ft 476 kts 147°
2026-05-07 12:45 23.15227 37.14552 38843 ft 474 kts 147°
2026-05-07 12:45 23.10362 37.19559 38840 ft 477 kts 147°
2026-05-07 12:46 23.05460 37.24601 38839 ft 477 kts 147°
2026-05-07 12:46 23.00580 37.29614 38843 ft 478 kts 147°
2026-05-07 12:47 22.95698 37.34628 38839 ft 474 kts 147°
2026-05-07 12:47 22.90754 37.39693 38837 ft 476 kts 147°
2026-05-07 12:48 22.85861 37.44709 38856 ft 474 kts 147°
2026-05-07 12:48 22.80966 37.49716 38852 ft 472 kts 147°
2026-05-07 12:49 22.76145 37.54667 38840 ft 480 kts 144°
2026-05-07 12:49 22.72062 37.60319 38846 ft 489 kts 135°
2026-05-07 12:50 22.68053 37.66457 38836 ft 494 kts 135°
2026-05-07 12:50 22.63910 37.72815 38833 ft 491 kts 135°
2026-05-07 12:51 22.59861 37.78998 38808 ft 491 kts 135°
2026-05-07 12:51 22.57886 37.82017 38241 ft 488 kts 135°
2026-05-07 12:51 22.55913 37.85019 37391 ft 491 kts 135°
2026-05-07 12:52 22.53914 37.88059 36533 ft 494 kts 135°
2026-05-07 12:52 22.51919 37.91091 35705 ft 496 kts 134°
2026-05-07 12:52 22.49902 37.94155 34867 ft 498 kts 133°
2026-05-07 12:52 22.47908 37.97183 33987 ft 500 kts 133°
2026-05-07 12:53 22.45863 38.00285 33080 ft 503 kts 132°
2026-05-07 12:53 22.43813 38.03395 32136 ft 505 kts 132°
2026-05-07 12:53 22.41793 38.06457 31198 ft 508 kts 132°
2026-05-07 12:53 22.39693 38.09638 30294 ft 509 kts 131°
2026-05-07 12:54 22.37596 38.12817 29749 ft 502 kts 131°
2026-05-07 12:54 22.35506 38.15985 29192 ft 496 kts 131°
2026-05-07 12:54 22.33538 38.18963 28621 ft 491 kts 131°
2026-05-07 12:54 22.31566 38.21943 28008 ft 487 kts 131°
2026-05-07 12:55 22.29603 38.24909 27412 ft 483 kts 130°
2026-05-07 12:55 22.27659 38.27844 26806 ft 479 kts 130°
2026-05-07 12:55 22.25711 38.30782 26187 ft 475 kts 130°
2026-05-07 12:55 22.23775 38.33702 25578 ft 472 kts 130°
2026-05-07 12:56 22.21855 38.36594 24963 ft 468 kts 130°
2026-05-07 12:56 22.19962 38.39423 24368 ft 463 kts 131°
2026-05-07 12:56 22.17975 38.42196 24200 ft 448 kts 132°
2026-05-07 12:56 22.16064 38.44839 23822 ft 444 kts 132°
2026-05-07 12:57 22.14153 38.47479 23502 ft 439 kts 131°
2026-05-07 12:57 22.12287 38.50041 23391 ft 424 kts 134°
2026-05-07 12:57 22.10222 38.52267 23135 ft 407 kts 145°
2026-05-07 12:57 22.07923 38.53981 22824 ft 393 kts 155°
2026-05-07 12:58 22.05462 38.55156 22530 ft 379 kts 167°
2026-05-07 12:58 22.02960 38.55904 22265 ft 368 kts 170°
2026-05-07 12:58 22.00463 38.56475 21851 ft 360 kts 178°
2026-05-07 12:58 21.97976 38.56506 21317 ft 357 kts 187°
2026-05-07 12:59 21.95472 38.56381 20509 ft 365 kts 187°
2026-05-07 12:59 21.92930 38.56044 19833 ft 366 kts 192°
2026-05-07 12:59 21.90469 38.55514 19336 ft 363 kts 194°
2026-05-07 12:59 21.88000 38.54892 18899 ft 359 kts 195°
2026-05-07 13:00 21.85587 38.54267 18455 ft 356 kts 191°
2026-05-07 13:00 21.83106 38.54116 18094 ft 354 kts 177°
2026-05-07 13:00 21.80762 38.54699 18052 ft 344 kts 160°
2026-05-07 13:00 21.78740 38.56030 18044 ft 335 kts 141°
2026-05-07 13:01 21.77180 38.57858 17914 ft 329 kts 130°
2026-05-07 13:01 21.76138 38.60061 17498 ft 337 kts 109°
2026-05-07 13:01 21.75764 38.62553 17055 ft 341 kts 96°
2026-05-07 13:01 21.75747 38.65122 16674 ft 341 kts 91°
2026-05-07 13:02 21.75847 38.67687 16309 ft 339 kts 90°
2026-05-07 13:02 21.75981 38.70181 15976 ft 336 kts 89°
2026-05-07 13:02 21.76127 38.72683 15613 ft 334 kts 89°
2026-05-07 13:02 21.76275 38.75158 15229 ft 333 kts 89°
2026-05-07 13:03 21.76426 38.77647 14824 ft 332 kts 89°
2026-05-07 13:03 21.76576 38.80122 14518 ft 328 kts 89°
2026-05-07 13:03 21.76726 38.82587 14273 ft 323 kts 89°
2026-05-07 13:03 21.76871 38.84986 14058 ft 315 kts 89°
2026-05-07 13:04 21.77015 38.87371 13920 ft 305 kts 89°
2026-05-07 13:04 21.77153 38.89660 13738 ft 297 kts 89°
2026-05-07 13:04 21.77288 38.91903 13557 ft 290 kts 89°
2026-05-07 13:04 21.77425 38.94201 13342 ft 283 kts 89°
2026-05-07 13:05 21.77561 38.96482 13131 ft 276 kts 89°
2026-05-07 13:05 21.77552 38.98718 12919 ft 267 kts 101°
2026-05-07 13:05 21.77177 39.00925 12420 ft 271 kts 105°
2026-05-07 13:05 21.76744 39.03128 11876 ft 278 kts 104°
2026-05-07 13:06 21.76308 39.05370 11370 ft 282 kts 104°
2026-05-07 13:06 21.75877 39.07614 10917 ft 287 kts 104°
2026-05-07 13:06 21.75461 39.09778 10385 ft 292 kts 103°
2026-05-07 13:06 21.75039 39.11973 9916 ft 296 kts 103°
2026-05-07 13:07 21.74606 39.14228 9578 ft 293 kts 103°
2026-05-07 13:07 21.74188 39.16407 9573 ft 278 kts 103°
2026-05-07 13:07 21.73798 39.18437 9565 ft 264 kts 103°
2026-05-07 13:07 21.73423 39.20384 9490 ft 254 kts 103°
2026-05-07 13:08 21.73058 39.22269 9242 ft 252 kts 103°
2026-05-07 13:08 21.72571 39.24188 8901 ft 250 kts 120°
2026-05-07 13:08 21.71348 39.25646 8532 ft 244 kts 150°
2026-05-07 13:08 21.69821 39.26452 8293 ft 240 kts 159°
2026-05-07 13:09 21.68184 39.27131 8003 ft 239 kts 161°
2026-05-07 13:09 21.66581 39.27764 7735 ft 238 kts 161°
2026-05-07 13:09 21.65015 39.28382 7461 ft 237 kts 161°
2026-05-07 13:09 21.63434 39.29005 7233 ft 233 kts 161°
2026-05-07 13:10 21.61822 39.29637 6877 ft 234 kts 161°
2026-05-07 13:10 21.60181 39.30280 6597 ft 231 kts 161°
2026-05-07 13:10 21.58637 39.30885 6290 ft 231 kts 161°
2026-05-07 13:10 21.57004 39.31524 6011 ft 229 kts 161°
2026-05-07 13:11 21.55447 39.32133 5678 ft 230 kts 161°
2026-05-07 13:11 21.53912 39.32735 5345 ft 231 kts 161°
2026-05-07 13:11 21.52377 39.33337 5050 ft 231 kts 161°
2026-05-07 13:11 21.50783 39.33962 4705 ft 233 kts 161°
2026-05-07 13:12 21.49242 39.34565 4392 ft 234 kts 161°
2026-05-07 13:12 21.47676 39.35178 4111 ft 233 kts 161°
2026-05-07 13:12 21.46126 39.35785 3803 ft 234 kts 161°
2026-05-07 13:12 21.44528 39.36411 3490 ft 233 kts 161°
2026-05-07 13:13 21.42960 39.37026 3114 ft 233 kts 160°
2026-05-07 13:13 21.41426 39.37628 3019 ft 235 kts 160°
2026-05-07 13:13 21.39798 39.38266 2993 ft 236 kts 160°
2026-05-07 13:13 21.38179 39.38903 2997 ft 236 kts 160°
2026-05-07 13:14 21.36561 39.39272 2989 ft 234 kts 184°
2026-05-07 13:14 21.35015 39.38747 2985 ft 231 kts 216°
2026-05-07 13:14 21.33949 39.37478 2986 ft 225 kts 243°
2026-05-07 13:14 21.33283 39.35933 2986 ft 224 kts 250°
2026-05-07 13:15 21.32727 39.34354 2977 ft 222 kts 257°
2026-05-07 13:15 21.32732 39.32736 2973 ft 219 kts 288°
2026-05-07 13:15 21.33572 39.31374 2972 ft 219 kts 321°
2026-05-07 13:15 21.34977 39.30537 2977 ft 220 kts 336°
2026-05-07 13:16 21.36489 39.29912 2964 ft 219 kts 339°
2026-05-07 13:16 21.38001 39.29322 2980 ft 220 kts 339°
2026-05-07 13:16 21.39485 39.28743 2978 ft 218 kts 339°
2026-05-07 13:16 21.40990 39.28126 2986 ft 219 kts 338°
2026-05-07 13:17 21.42583 39.27449 2898 ft 220 kts 338°
2026-05-07 13:17 21.44044 39.26855 2719 ft 217 kts 339°
2026-05-07 13:17 21.45495 39.26286 2573 ft 213 kts 339°
2026-05-07 13:17 21.47063 39.25682 2426 ft 213 kts 339°
2026-05-07 13:18 21.48607 39.25089 2277 ft 210 kts 339°
2026-05-07 13:18 21.50175 39.24485 2131 ft 205 kts 339°
2026-05-07 13:18 21.51551 39.23951 2085 ft 192 kts 340°
2026-05-07 13:18 21.52764 39.23479 2076 ft 178 kts 339°
2026-05-07 13:19 21.53888 39.23040 2075 ft 163 kts 339°
2026-05-07 13:19 21.54909 39.22641 2082 ft 150 kts 339°
2026-05-07 13:19 21.55892 39.22255 2080 ft 142 kts 339°
2026-05-07 13:19 21.56791 39.21902 2012 ft 138 kts 339°
2026-05-07 13:20 21.57655 39.21564 1844 ft 127 kts 339°
2026-05-07 13:20 21.58494 39.21236 1689 ft 125 kts 339°
2026-05-07 13:20 21.59329 39.20909 1534 ft 123 kts 339°
2026-05-07 13:20 21.60171 39.20579 1373 ft 125 kts 339°
2026-05-07 13:21 21.61010 39.20250 1217 ft 123 kts 339°
2026-05-07 13:21 21.61854 39.19921 1045 ft 126 kts 338°
2026-05-07 13:21 21.62679 39.19603 869 ft 126 kts 340°
2026-05-07 13:21 21.63555 39.19319 693 ft 127 kts 340°
2026-05-07 13:22 21.64403 39.18988 538 ft 130 kts 334°
2026-05-07 13:22 21.65232 39.18619 321 ft 127 kts 339°
2026-05-07 13:22 21.66080 39.18293 192 ft 130 kts 338°
2026-05-07 13:22 21.66951 39.17948 64 ft 123 kts 338°
2026-05-07 13:23 21.67659 39.17652 63 ft 88 kts 340°
2026-05-07 13:23 21.68122 39.17468 63 ft 51 kts 339°
2026-05-07 13:23 21.68292 39.17355 63 ft 24 kts 318°
2026-05-07 13:23 21.68393 39.17235 63 ft 17 kts 308°
2026-05-07 13:24 21.68446 39.17161 63 ft 1 kts 307°
2026-05-07 13:24 21.68453 39.17153 63 ft 1 kts 307°
2026-05-07 13:24 21.68461 39.17141 63 ft 2 kts 307°
2026-05-07 13:24 21.68471 39.17127 63 ft 2 kts 307°
2026-05-07 13:25 21.68483 39.17110 63 ft 4 kts 308°
2026-05-07 13:25 21.68489 39.17102 63 ft 0 kts 305°
2026-05-07 13:26 21.68489 39.17091 63 ft 1 kts 250°
2026-05-07 13:26 21.68485 39.17088 63 ft 0 kts 219°
2026-05-07 13:26 21.68475 39.17086 63 ft 2 kts 165°
2026-05-07 13:27 21.68426 39.17109 63 ft 9 kts 156°
2026-05-07 13:27 21.68357 39.17140 63 ft 11 kts 158°
2026-05-07 13:27 21.68278 39.17171 63 ft 11 kts 160°
2026-05-07 13:27 21.68192 39.17204 63 ft 11 kts 161°
2026-05-07 13:28 21.68105 39.17233 63 ft 12 kts 163°
2026-05-07 13:28 21.68023 39.17269 63 ft 12 kts 156°
2026-05-07 13:28 21.67938 39.17306 63 ft 12 kts 158°
2026-05-07 13:28 21.67851 39.17342 63 ft 12 kts 161°
2026-05-07 13:29 21.67765 39.17373 63 ft 12 kts 161°
2026-05-07 13:29 21.67679 39.17406 63 ft 13 kts 160°
2026-05-07 13:29 21.67590 39.17430 63 ft 11 kts 195°
2026-05-07 13:29 21.67564 39.17365 63 ft 8 kts 314°
2026-05-07 13:30 21.67622 39.17327 63 ft 9 kts 329°
2026-05-07 13:30 21.67680 39.17301 63 ft 8 kts 343°
2026-05-07 13:30 21.67742 39.17282 63 ft 8 kts 344°
2026-05-07 13:30 21.67801 39.17260 63 ft 8 kts 339°
2026-05-07 13:31 21.67860 39.17237 63 ft 8 kts 340°
2026-05-07 13:31 21.67919 39.17213 63 ft 9 kts 339°
2026-05-07 13:31 21.67959 39.17168 63 ft 8 kts 274°
2026-05-07 13:31 21.67943 39.17093 63 ft 9 kts 249°
2026-05-07 13:32 21.67914 39.17007 63 ft 14 kts 250°
2026-05-07 13:32 21.67866 39.16872 63 ft 18 kts 248°
2026-05-07 13:32 21.67817 39.16729 62 ft 17 kts 251°
2026-05-07 13:32 21.67767 39.16604 62 ft 16 kts 243°
2026-05-07 13:33 21.67731 39.16483 62 ft 15 kts 252°
2026-05-07 13:33 21.67693 39.16365 62 ft 14 kts 250°
2026-05-07 13:33 21.67655 39.16257 62 ft 13 kts 248°
2026-05-07 13:33 21.67585 39.16208 62 ft 12 kts 165°
2026-05-07 13:34 21.67501 39.16240 62 ft 13 kts 159°
2026-05-07 13:34 21.67218 39.16352 62 ft 27 kts 160°
2026-05-07 13:34 21.67045 39.16421 62 ft 20 kts 159°
2026-05-07 13:35 21.66928 39.16467 62 ft 17 kts 159°
2026-05-07 13:35 21.66891 39.16557 62 ft 4 kts 76°
2026-05-07 13:35 21.66904 39.16575 62 ft 1 kts
2026-05-07 13:35 21.66928 39.16572 62 ft 5 kts 355°
2026-05-07 13:36 21.66957 39.16573 62 ft 0 kts
2026-05-07 13:36 21.66960 39.16573 62 ft 2 kts
2026-05-07 13:36 21.66982 39.16576 62 ft 3 kts
2026-05-07 13:37 21.66988 39.16577 62 ft 0 kts 10°